This demonstration page uses our WeatherBlox Daily Observations layout. Learn more.

Left ArrowRight Arrow

41.86663, -103.66717

Hourly Observations for July 4, 2019

Temp ( °F °C ) Dew Point ( °F °C ) Humidity (%) Winds ( mph kmh ) Pressure ( in mb ) Visibility ( mi km ) Precip ( " mm )
12:53 am 00:53 Mostly Clear 68 20 N/A N/A ENE 12 19 29.73 1007 10 16 N/A
1:01 am 01:01 Mostly Cloudy with Nearby Thunderstorms 68 20 N/A N/A NE 13 20 29.70 1006 10 16 N/A
1:32 am 01:32 Mostly Cloudy with Light Rain 66 19 N/A N/A NE 16 26 29.72 1006 10 16 N/A
1:53 am 01:53 Mostly Cloudy with Nearby Thunderstorms 66 19 N/A N/A NE 17 28 29.76 1008 10 16 N/A
2:26 am 02:26 Partly Cloudy 64 18 N/A N/A NE 18 30 29.75 1007 10 16 N/A
2:53 am 02:53 Clear 64 18 N/A N/A NE 20 31 29.76 1008 10 16 N/A
3:53 am 03:53 Clear 63 17 N/A N/A E 16 26 29.80 1009 10 16 N/A
4:53 am 04:53 Clear 61 16 N/A N/A E 9 15 29.80 1009 10 16 N/A
5:53 am 05:53 Sunny 59 15 N/A N/A E 3 6 29.85 1011 10 16 N/A
6:53 am 06:53 Mostly Cloudy 63 17 N/A N/A ENE 3 6 29.85 1011 10 16 N/A
7:53 am 07:53 Mostly Cloudy 64 18 N/A N/A ESE 6 9 29.89 1012 10 16 N/A
8:53 am 08:53 Cloudy 68 20 N/A N/A SSE 7 11 29.88 1012 10 16 N/A
9:53 am 09:53 Cloudy 66 19 N/A N/A S 6 9 29.90 1012 10 16 N/A
10:49 am 10:49 Cloudy 70 21 N/A N/A SE 15 24 29.82 1010 10 16 N/A
10:53 am 10:53 Cloudy 70 21 N/A N/A SE 14 22 29.90 1013 10 16 N/A
11:53 am 11:53 Cloudy 70 21 N/A N/A SSE 6 9 29.94 1014 10 16 N/A
12:40 pm 12:40 Cloudy with Thunderstorms 66 19 N/A N/A VRB 6 9 29.88 1012 3 4 0.01 0.25
12:53 pm 12:53 Cloudy with Light Rain 66 19 N/A N/A SE 10 17 29.93 1014 2 3 0.03 0.76
1:03 pm 13:03 Cloudy with Light Rain 66 19 N/A N/A SE 14 22 29.87 1011 8 13 N/A
1:40 pm 13:40 Cloudy 70 21 N/A N/A SE 13 20 29.83 1010 10 16 N/A
1:53 pm 13:53 Cloudy 70 21 N/A N/A SE 13 20 29.91 1013 10 16 N/A
2:01 pm 14:01 Cloudy 70 21 N/A N/A SE 13 20 29.83 1010 10 16 N/A
2:53 pm 14:53 Cloudy 73 23 N/A N/A SE 17 28 29.90 1012 10 16 N/A
3:53 pm 15:53 Cloudy 73 23 N/A N/A ESE 16 26 29.89 1012 10 16 N/A
4:44 pm 16:44 Cloudy 72 22 N/A N/A SE 10 17 29.78 1009 10 16 N/A
4:53 pm 16:53 Cloudy 72 22 N/A N/A SE 12 19 29.89 1012 10 16 N/A
5:11 pm 17:11 Cloudy 72 22 N/A N/A SE 10 17 29.78 1009 10 16 N/A
5:53 pm 17:53 Cloudy 72 22 N/A N/A SE 12 19 29.89 1012 10 16 N/A
6:53 pm 18:53 Cloudy 72 22 N/A N/A SE 9 15 29.89 1012 10 16 N/A
7:53 pm 19:53 Cloudy 72 22 N/A N/A SSE 10 17 29.89 1012 10 16 N/A
8:53 pm 20:53 Cloudy 72 22 N/A N/A E 5 7 29.88 1012 10 16 N/A
9:53 pm 21:53 Mostly Cloudy 72 22 N/A N/A ESE 9 15 29.91 1013 10 16 N/A
10:53 pm 22:53 Clear 70 21 N/A N/A ENE 9 15 29.87 1012 9 14 N/A
11:22 pm 23:22 Mostly Cloudy 72 22 N/A N/A N N/A 29.79 1009 10 16 N/A
11:53 pm 23:53 Mostly Cloudy 70 21 N/A N/A SE 8 13 29.90 1012 8 13 N/A

Powered by AerisWeather